When you browse on this site, cookies collect data to enhance your experience and personalize the content and advertising you see.
Visit our Privacy Policy to learn more. By continuing to use the site, you agree to this use of cookies and data.
  • In Lithuania
  • List of Countries
  • For 7 days
  • Water Temperature
  • Satellite Maps
  • Weather Map
  • Weather Widgets
  • user-avatar
    Login

    Hourly Weather Klosow

    Today, 15 December, Saturday

    Time Temperature Precipitation Wind Pressure Humidity
    00:00 -4°C° 0 mm 3 mps 755 mmHg 89%
    01:00 -3°C° 0 mm 2 mps 755 mmHg 91%
    02:00 -2°C° 0 mm 2 mps 755 mmHg 91%
    03:00 -2°C° 0 mm 2 mps 755 mmHg 91%
    04:00 -2°C° 0 mm 3 mps 755 mmHg 91%
    05:00 -2°C° 0 mm 3 mps 755 mmHg 91%
    06:00 -2°C° 0 mm 3 mps 755 mmHg 90%
    07:00 -2°C° 0 mm 3 mps 755 mmHg 90%
    08:00 -2°C° 0 mm 3 mps 755 mmHg 88%
    09:00 -2°C° 0 mm 3 mps 755 mmHg 86%
    10:00 -2°C° 0 mm 4 mps 755 mmHg 84%
    11:00 -2°C° 0 mm 4 mps 755 mmHg 80%
    12:00 -2°C° 0 mm 4 mps 755 mmHg 76%
    13:00 -2°C° 0 mm 4 mps 755 mmHg 73%
    14:00 -2°C° 0 mm 4 mps 754 mmHg 76%
    15:00 -2°C° 0 mm 3 mps 754 mmHg 79%
    16:00 -2°C° 0 mm 3 mps 754 mmHg 83%
    17:00 -2°C° 0 mm 3 mps 754 mmHg 84%
    18:00 -2°C° 0 mm 3 mps 754 mmHg 85%
    19:00 -4°C° 0 mm 3 mps 753 mmHg 86%
    20:00 -4°C° 0 mm 3 mps 753 mmHg 87%
    21:00 -4°C° 0 mm 3 mps 753 mmHg 88%
    22:00 -4°C° 0 mm 3 mps 753 mmHg 89%
    23:00 -3°C° 0 mm 2 mps 752 mmHg 89%

    Tomorrow, 16 December, Sunday

    Time Temperature Precipitation Wind Pressure Humidity
    00:00 -3°C° 0 mm 2 mps 752 mmHg 88%
    01:00 -3°C° 0 mm 2 mps 752 mmHg 88%
    02:00 -3°C° 0 mm 2 mps 751 mmHg 88%
    03:00 -3°C° 0 mm 2 mps 751 mmHg 88%
    04:00 -3°C° 0 mm 2 mps 750 mmHg 88%
    05:00 -1°C° 0 mm 1 mps 750 mmHg 88%
    06:00 -1°C° 0 mm 1 mps 750 mmHg 89%
    07:00 -1°C° 0 mm 1 mps 750 mmHg 89%
    08:00 -1°C° 0 mm 1 mps 750 mmHg 87%
    09:00 -1°C° 0 mm 1 mps 749 mmHg 85%
    10:00 0°C° 0 mm 1 mps 749 mmHg 83%
    11:00 0°C° 0 mm 1 mps 749 mmHg 80%
    12:00 0°C° 0 mm 1 mps 749 mmHg 77%
    13:00 +1°C° 0 mm 1 mps 748 mmHg 74%
    14:00 -2°C° 0 mm 2 mps 748 mmHg 78%
    15:00 -2°C° 0 mm 2 mps 748 mmHg 81%
    16:00 -3°C° 0 mm 2 mps 748 mmHg 84%
    17:00 -3°C° 0 mm 2 mps 748 mmHg 84%
    18:00 -3°C° 0 mm 2 mps 748 mmHg 84%
    19:00 -4°C° 0 mm 3 mps 748 mmHg 84%
    20:00 -4°C° 0 mm 3 mps 748 mmHg 82%
    21:00 -4°C° 0 mm 3 mps 748 mmHg 81%
    22:00 -4°C° 0 mm 3 mps 749 mmHg 79%
    23:00 -4°C° 0 mm 3 mps 749 mmHg 79%

    Day after tomorrow, 17 December, Monday

    Time Temperature Precipitation Wind Pressure Humidity
    00:00 -4°C° 0 mm 3 mps 749 mmHg 79%
    01:00 -2°C° 0 mm 3 mps 749 mmHg 79%
    02:00 -3°C° 0 mm 2 mps 749 mmHg 81%
    03:00 -3°C° 0 mm 2 mps 749 mmHg 82%
    04:00 -3°C° 0 mm 2 mps 749 mmHg 84%
    05:00 -3°C° 0 mm 2 mps 749 mmHg 84%
    06:00 -2°C° 0 mm 2 mps 750 mmHg 84%
    07:00 -2°C° 0 mm 2 mps 750 mmHg 84%
    08:00 -2°C° 0 mm 2 mps 750 mmHg 83%
    09:00 -1°C° 0 mm 2 mps 751 mmHg 81%
    10:00 +1°C° 0 mm 2 mps 751 mmHg 80%
    11:00 +1°C° 0 mm 2 mps 751 mmHg 79%
    12:00 +3°C° 0 mm 1 mps 751 mmHg 78%
    13:00 +4°C° 0 mm 1 mps 751 mmHg 77%
    14:00 +3°C° 0 mm 1 mps 752 mmHg 80%
    15:00 +2°C° 0 mm 1 mps 752 mmHg 83%
    16:00 +1°C° 0 mm 1 mps 752 mmHg 86%
    17:00 +1°C° 0 mm 1 mps 753 mmHg 86%
    18:00 +1°C° 0 mm 1 mps 753 mmHg 87%
    19:00 -1°C° 0 mm 2 mps 754 mmHg 87%
    20:00 -1°C° 0 mm 2 mps 754 mmHg 88%
    21:00 -1°C° 0 mm 2 mps 754 mmHg 88%
    22:00 -1°C° 0 mm 2 mps 754 mmHg 88%
    23:00 -1°C° 0 mm 2 mps 754 mmHg 88%

    18 December, Tuesday

    Time Temperature Precipitation Wind Pressure Humidity
    00:00 -1°C° 0 mm 2 mps 754 mmHg 87%
    01:00 -1°C° 0 mm 2 mps 755 mmHg 87%
    02:00 -1°C° 0 mm 2 mps 755 mmHg 87%
    03:00 -1°C° 0 mm 2 mps 754 mmHg 87%
    04:00 -1°C° 0 mm 2 mps 754 mmHg 87%
    05:00 -1°C° 0.2 mm 2 mps 755 mmHg 87%
    06:00 -1°C° 0.2 mm 2 mps 755 mmHg 87%
    07:00 +2°C° 0.2 mm 1 mps 755 mmHg 88%
    08:00 +2°C° 0.5 mm 1 mps 755 mmHg 89%
    09:00 +2°C° 0.5 mm 1 mps 755 mmHg 90%
    10:00 +2°C° 0.5 mm 1 mps 756 mmHg 91%
    11:00 +3°C° 0.2 mm 1 mps 756 mmHg 92%
    12:00 +3°C° 0.2 mm 1 mps 755 mmHg 94%
    13:00 +3°C° 0.2 mm 1 mps 755 mmHg 95%
    14:00 +3°C° 0.1 mm 1 mps 756 mmHg 96%
    15:00 +2°C° 0.1 mm 1 mps 756 mmHg 96%
    16:00 +2°C° 0.1 mm 1 mps 756 mmHg 97%
    17:00 +2°C° 0 mm 1 mps 756 mmHg 97%
    18:00 +2°C° 0 mm 1 mps 756 mmHg 97%
    19:00 0°C° 0 mm 0 mps 756 mmHg 97%
    20:00 0°C° 0 mm 0 mps 756 mmHg 96%
    21:00 +1°C° 0 mm 1 mps 756 mmHg 96%
    22:00 +1°C° 0 mm 1 mps 756 mmHg 96%
    23:00 +1°C° 0 mm 1 mps 756 mmHg 95%

    19 December, Wednesday

    Time Temperature Precipitation Wind Pressure Humidity
    00:00 +1°C° 0 mm 1 mps 755 mmHg 95%
    01:00 +1°C° 0 mm 1 mps 755 mmHg 95%
    02:00 +1°C° 0 mm 1 mps 755 mmHg 94%
    03:00 -2°C° 0 mm 2 mps 755 mmHg 94%
    04:00 -2°C° 0 mm 2 mps 755 mmHg 93%
    05:00 -2°C° 0 mm 2 mps 755 mmHg 93%
    06:00 -3°C° 0 mm 2 mps 755 mmHg 92%
    07:00 -4°C° 0 mm 3 mps 755 mmHg 91%
    08:00 -4°C° 0 mm 3 mps 755 mmHg 89%
    09:00 -2°C° 0 mm 3 mps 755 mmHg 87%
    10:00 -2°C° 0 mm 3 mps 755 mmHg 84%
    11:00 -1°C° 0 mm 3 mps 755 mmHg 84%
    12:00 -1°C° 0 mm 3 mps 754 mmHg 83%
    13:00 0°C° 0 mm 3 mps 754 mmHg 82%
    14:00 -1°C° 0 mm 3 mps 754 mmHg 84%
    15:00 -2°C° 0 mm 3 mps 754 mmHg 85%
    16:00 -2°C° 0 mm 3 mps 754 mmHg 87%
    17:00 -4°C° 0 mm 3 mps 754 mmHg 87%
    18:00 -4°C° 0 mm 3 mps 754 mmHg 87%
    19:00 -4°C° 0 mm 4 mps 753 mmHg 87%
    20:00 -4°C° 0 mm 3 mps 753 mmHg 87%
    21:00 -4°C° 0 mm 3 mps 753 mmHg 88%
    22:00 -5°C° 0 mm 3 mps 753 mmHg 88%
    23:00 -5°C° 0 mm 3 mps 753 mmHg 88%

    20 December, Thursday

    Time Temperature Precipitation Wind Pressure Humidity
    00:00 -5°C° 0 mm 3 mps 753 mmHg 88%
    01:00 -5°C° 0 mm 3 mps 753 mmHg 88%
    02:00 -5°C° 0 mm 3 mps 753 mmHg 89%
    03:00 -5°C° 0 mm 3 mps 753 mmHg 89%
    04:00 -5°C° 0 mm 3 mps 753 mmHg 89%
    05:00 -5°C° 0 mm 3 mps 753 mmHg 89%
    06:00 -5°C° 0 mm 2 mps 753 mmHg 89%
    07:00 -5°C° 0 mm 2 mps 753 mmHg 90%
    08:00 -4°C° 0 mm 2 mps 753 mmHg 88%
    09:00 -4°C° 0 mm 2 mps 753 mmHg 87%
    10:00 -3°C° 0 mm 2 mps 754 mmHg 85%
    11:00 -3°C° 0 mm 2 mps 753 mmHg 84%
    12:00 -2°C° 0 mm 2 mps 753 mmHg 83%
    13:00 -1°C° 0 mm 2 mps 753 mmHg 82%
    14:00 -2°C° 0 mm 2 mps 753 mmHg 84%
    15:00 -3°C° 0 mm 2 mps 753 mmHg 86%
    16:00 -3°C° 0 mm 2 mps 753 mmHg 88%
    17:00 -4°C° 0 mm 2 mps 754 mmHg 88%
    18:00 -4°C° 0 mm 2 mps 754 mmHg 89%
    19:00 -4°C° 0 mm 2 mps 754 mmHg 89%
    20:00 -2°C° 0 mm 1 mps 754 mmHg 89%
    21:00 -2°C° 0 mm 1 mps 755 mmHg 89%
    22:00 -2°C° 0 mm 1 mps 755 mmHg 89%
    23:00 -2°C° 0 mm 1 mps 755 mmHg 89%
    Show more